User: anonymous   Login
Location: Kitchener
(43.2612°N, 80.5078°W)
Time: 19:17:47
(UTC+01:00)
Language:

Iridium 57 - Orbit

View from above orbital plane
View from above orbital plane
View from above satellite
View from above satellite

Ground track
Ground track

The orbit data is extracted from the following two-line orbital elements,

1 25273U 98019B   14330.38162241  .00000357  00000-0  12030-3 0  9909
2 25273 086.3947 317.6168 0002215 106.7083 253.4356 14.34219779872221
Epoch (UTC): 26 November 2014 09:09:32
Eccentricity: 0.0002215
inclination: 86.3947°
perigee height: 776 km
apogee height: 779 km
right ascension of ascending node: 317.6168°
argument of perigee: 106.7083°
revolutions per day: 14.34219779
mean anomaly at epoch: 253.4356°
orbit number at epoch: 87222

The dashed part of the orbit path shows where the satellite is in the earth's shadow,  

DLR